This demonstration page uses our WeatherBlox Daily Observations layout. Learn more.

Left ArrowRight Arrow

Hourly Observations for July 4, 2022

Temp ( °F °C ) Dew Point ( °F °C ) Humidity (%) Winds ( mph kmh ) Pressure ( in mb ) Visibility ( mi km ) Precip ( " mm )
12:03 am 00:03 Mostly Cloudy with Thunderstorms 78 25.6 74 23.3 87 87 S 9 15 29.85 1011 6 10 0.03 0.76
12:14 am 00:14 Cloudy with Thunderstorms 77 25 73 23 89 89 S 5 7 29.86 1011 2 3 0.00 0.00
12:22 am 00:22 Cloudy with Thunderstorms 77 25 73 23 89 89 SE 7 11 29.85 1011 4 6 0.00 0.00
12:53 am 00:53 Mostly Cloudy with Nearby Thunderstorms 76 24.4 74 23.3 94 94 SE 9 15 29.86 1011 6 10 0.27 6.86
1:09 am 01:09 Mostly Cloudy with Light Rain 76 24.4 74 23.3 94 94 SE 10 17 29.82 1010 10 16 0.01 0.25
1:53 am 01:53 Partly Cloudy 77 25 73 22.8 88 88 SSE 9 15 29.83 1010 10 16 0.01 0.25
3:53 am 03:53 Clear 75 23.9 71 21.7 88 88 SSE 8 13 29.80 1009 10 16 0.00 0.00
4:53 am 04:53 Mostly Clear 75 23.9 70 21.1 84 84 S 9 15 29.80 1009 10 16 0.00 0.00
5:53 am 05:53 Clear 75 23.9 68 20 79 79 S 10 17 29.79 1009 10 16 0.00 0.00
6:53 am 06:53 Sunny 75 23.9 67 19.4 76 76 S 10 17 29.79 1009 10 16 0.00 0.00
7:53 am 07:53 Sunny 75 23.9 66 18.9 74 74 S 10 17 29.78 1009 10 16 0.00 0.00
8:53 am 08:53 Sunny 78 25.6 66 18.9 67 67 S 12 19 29.79 1009 10 16 0.00 0.00
9:53 am 09:53 Sunny 82 27.8 66 18.9 58 58 SSW 16 26 29.79 1009 10 16 0.00 0.00
10:53 am 10:53 Sunny 84 28.9 66 18.9 55 55 SSW 17 28 29.79 1009 10 16 0.00 0.00
11:53 am 11:53 Sunny 88 31.1 67 19.4 50 50 SSW 14 22 29.79 1009 10 16 0.00 0.00
12:53 pm 12:53 Sunny 92 33.3 67 19.4 44 44 SW 15 24 29.78 1009 10 16 0.00 0.00
1:53 pm 13:53 Sunny 94 34.4 66 18.9 40 40 S 14 22 29.77 1008 10 16 0.00 0.00
2:53 pm 14:53 Sunny 97 36.1 65 18.3 35 35 S 13 20 29.76 1008 10 16 0.00 0.00
3:53 pm 15:53 Sunny 97 36.1 65 18.3 35 35 SSW 13 20 29.75 1008 10 16 0.00 0.00
4:53 pm 16:53 Sunny 98 36.7 64 17.8 33 33 SSW 9 15 29.74 1007 10 16 0.00 0.00
5:53 pm 17:53 Sunny 98 36.7 65 18.3 34 34 SSW 7 11 29.73 1007 10 16 0.00 0.00
6:53 pm 18:53 Sunny 95 35 66 18.9 39 39 S 12 19 29.73 1007 10 16 0.00 0.00
7:53 pm 19:53 Sunny 92 33.3 66 18.9 43 43 S 12 19 29.73 1007 10 16 0.00 0.00
8:53 pm 20:53 Sunny 88 31.1 65 18.3 46 46 S 10 17 29.74 1007 10 16 0.00 0.00
9:53 pm 21:53 Clear 85 29.4 64 17.8 50 50 S 10 17 29.76 1008 10 16 0.00 0.00
10:53 pm 22:53 Clear 84 28.9 65 18.3 53 53 S 10 17 29.78 1009 10 16 0.00 0.00
11:53 pm 23:53 Clear 83 28.3 65 18.3 55 55 S 9 15 29.80 1009 10 16 0.00 0.00

Powered by AerisWeather